This demonstration page uses our WeatherBlox Daily Observations layout. Learn more.

Left ArrowRight Arrow

41.86663, -103.66717

Hourly Observations for January 31, 2020

Temp ( °F °C ) Dew Point ( °F °C ) Humidity (%) Winds ( mph kmh ) Pressure ( in mb ) Visibility ( mi km ) Precip ( " mm )
12:53 am 00:53 Clear 24 -4.4 19 -7.2 81 81 WNW 9 15 30.2 1023 10 16.0934 0 0
1:53 am 01:53 Clear 22 -5.6 18 -7.8 85 85 WNW 8 13 30.18 1022 10 16.0934 0 0
2:53 am 02:53 Clear 20 -6.7 16 -8.9 85 85 NW 8 13 30.16 1021 10 16.0934 0 0
3:53 am 03:53 Clear 24 -4.4 16 -8.9 71 71 WNW 8 13 30.14 1021 10 16.0934 0 0
4:53 am 04:53 Clear 19 -7.2 15 -9.4 84 84 NW 6 9 30.14 1021 10 16.0934 0 0
5:53 am 05:53 Clear 18 -7.8 14 -10 84 84 NNW 6 9 30.14 1021 10 16.0934 0 0
6:53 am 06:53 Clear 17 -8.3 12 -11.1 80 80 WNW 6 9 30.15 1021 10 16.0934 0 0
7:53 am 07:53 Sunny 20 -6.7 16 -8.9 85 85 WNW 6 9 30.14 1021 10 16.0934 0 0
8:53 am 08:53 Sunny 28 -2.2 19 -7.2 69 69 WNW 9 15 30.14 1021 10 16.0934 0 0
9:53 am 09:53 Sunny 35 1.7 21 -6.1 57 57 WNW 14 22 30.13 1020 10 16.0934 0 0
10:53 am 10:53 Sunny 39 3.9 22 -5.6 50 50 NW 13 20 30.12 1020 10 16.0934 0 0
11:53 am 11:53 Mostly Cloudy 46 7.8 20 -6.7 35 35 WNW 18 30 30.1 1019 10 16.0934 0 0
12:53 pm 12:53 Mostly Cloudy 45 7.2 19 -7.2 35 35 WNW 15 24 30.09 1019 10 16.0934 0 0
1:53 pm 13:53 Partly Cloudy 49 9.4 18 -7.8 29 29 WNW 18 30 30.07 1018 10 16.0934 0 0
2:53 pm 14:53 Mostly Sunny 49 9.4 17 -8.3 28 28 WNW 23 37 30.09 1019 10 16.0934 0 0
3:53 pm 15:53 Sunny 47 8.3 19 -7.2 33 33 W 14 22 30.09 1019 10 16.0934 0 0
4:53 pm 16:53 Sunny 43 6.1 22 -5.6 43 43 WNW 20 31 30.14 1021 10 16.0934 0 0
5:53 pm 17:53 Clear 39 3.9 23 -5 53 53 W 18 30 30.16 1022 10 16.0934 0 0
6:53 pm 18:53 Clear 38 3.3 23 -5 55 55 WNW 18 30 30.19 1023 10 16.0934 0 0
7:53 pm 19:53 Clear 37 2.8 23 -5 57 57 WNW 14 22 30.22 1023 10 16.0934 0 0
8:53 pm 20:53 Clear 36 2.2 24 -4.4 62 62 WNW 7 11 30.21 1023 10 16.0934 0 0
9:53 pm 21:53 Mostly Clear 34 1.1 23 -5 64 64 WNW 7 11 30.18 1022 10 16.0934 0 0
10:53 pm 22:53 Mostly Clear 32 0 23 -5 69 69 WNW 6 9 30.16 1022 10 16.0934 0 0
11:53 pm 23:53 Clear 30 -1.1 23 -5 75 75 NW 7 11 30.16 1021 10 16.0934 0 0

Powered by AerisWeather